Location: Burleson Fire Department Station 2
(32.5391°N, 97.3075°W)
Time: 00:14:55
(UTC+00:00)

NOAA 15 - Pass Details

Date: 09 December 2024
Orbit: 794 x 810 km, 98.6° (Epoch: 19 January)

Event Time Altitude Azimuth Distance (km) Brightness Sun altitude
Rises 23:45:25 0° 112° (ESE) 3,319 7.4 -4.9°
Reaches altitude 10° 23:50:00 10° 75° (ENE) 2,391 6.4 -5.8°
Maximum altitude 23:51:03 11° 63° (ENE) 2,351 6.3 -6.0°
Drops below altitude 10° 23:52:05 10° 52° (NE) 2,392 6.4 -6.2°
Sets 23:56:39 0° 15° (NNE) 3,324 7.4 -7.1°
